TimeCDT,TemperatureF,Dew PointF,Humidity,Sea Level PressureIn,VisibilityMPH,Wind Direction,Wind SpeedMPH,Gust SpeedMPH,PrecipitationIn,Events,Conditions,WindDirDegrees,DateUTC
12:55 AM,53.1,53.1,100,30.21,7.0,Calm,Calm,-,N/A,,Clear,0,2013-08-17 05:55:00
1:55 AM,52.0,51.1,97,30.20,4.0,Calm,Calm,-,N/A,,Clear,0,2013-08-17 06:55:00
2:55 AM,52.0,51.1,97,30.20,7.0,Calm,Calm,-,N/A,,Clear,0,2013-08-17 07:55:00
3:55 AM,52.0,51.1,97,30.21,7.0,Calm,Calm,-,N/A,,Clear,0,2013-08-17 08:55:00
4:55 AM,51.1,50.0,96,30.21,8.0,North,3.5,-,N/A,,Clear,350,2013-08-17 09:55:00
5:55 AM,51.1,50.0,96,30.21,6.0,Calm,Calm,-,N/A,,Clear,0,2013-08-17 10:55:00
6:55 AM,52.0,52.0,100,30.22,6.0,Calm,Calm,-,N/A,,Clear,0,2013-08-17 11:55:00
7:55 AM,62.1,57.0,84,30.22,10.0,Calm,Calm,-,N/A,,Clear,0,2013-08-17 12:55:00
8:55 AM,69.1,57.0,65,30.23,10.0,NE,6.9,-,N/A,,Clear,40,2013-08-17 13:55:00
9:55 AM,73.9,55.9,53,30.23,10.0,ENE,4.6,-,N/A,,Clear,60,2013-08-17 14:55:00
10:55 AM,75.9,55.0,48,30.23,10.0,East,6.9,-,N/A,,Clear,100,2013-08-17 15:55:00
11:55 AM,79.0,55.0,44,30.22,10.0,Variable,6.9,17.3,N/A,,Scattered Clouds,0,2013-08-17 16:55:00
12:55 PM,75.9,54.0,46,30.20,10.0,East,5.8,-,N/A,,Partly Cloudy,90,2013-08-17 17:55:00
1:55 PM,81.0,53.1,38,30.18,10.0,ENE,8.1,-,N/A,,Clear,70,2013-08-17 18:55:00
2:55 PM,82.0,54.0,38,30.17,10.0,SE,10.4,-,N/A,,Partly Cloudy,130,2013-08-17 19:55:00
3:55 PM,80.1,52.0,38,30.15,10.0,Variable,4.6,-,N/A,,Scattered Clouds,0,2013-08-17 20:55:00
4:55 PM,82.0,53.1,37,30.14,10.0,East,8.1,-,N/A,,Scattered Clouds,80,2013-08-17 21:55:00
5:55 PM,80.1,52.0,38,30.14,10.0,ESE,8.1,-,N/A,,Clear,110,2013-08-17 22:55:00
6:55 PM,77.0,53.1,43,30.14,10.0,East,6.9,-,N/A,,Clear,100,2013-08-17 23:55:00
7:55 PM,72.0,54.0,53,30.14,10.0,East,4.6,-,N/A,,Clear,100,2013-08-18 00:55:00
8:55 PM,66.9,54.0,63,30.15,10.0,ESE,3.5,-,N/A,,Clear,120,2013-08-18 01:55:00
9:55 PM,66.0,54.0,65,30.16,10.0,East,4.6,-,N/A,,Clear,100,2013-08-18 02:55:00
10:55 PM,60.1,53.1,78,30.17,10.0,ESE,3.5,-,N/A,,Clear,120,2013-08-18 03:55:00
11:55 PM,55.0,53.1,93,30.17,10.0,Calm,Calm,-,N/A,,Clear,0,2013-08-18 04:55:00